STARLINK-32330, 61850

Orbit data source: Space-Track

STARLINK-32330, 61850 is a payload satellite owned by SpaceX/Seattle (US) in LEO that was launched on Thu, 07 Nov 2024 UTC via an FALCON 9 launch vehicle from the Air Force Eastern Test Range (AFETR). Payload-class satellites include a variety of spacecraft equipped with specific instruments for various scientific and technological missions. These include communications satellites like Starlink; space stations such as the ISS; scientific satellites like the Hubble; Earth observation satellites from companies like Planet Labs, Umbra, and HawkEye 360; GPS; miniature CubeSats for education and research; and military/defense satellites.

Loading next visibility...
Identifier
61850, 2024-202F
Orbit
LEO
Country
Flag of USUS
Related business
Manufacturer
SpaceX/Seattle
Mission
Operational Commercial Communications
Bus & Motor
STARLINK V2M, Unknown motor
Mass
730 kg wet, ~700 kg dry
Launch date (UTC)
2024-11-07 (2 years ago)
Launch vehicle
FALCON 9
Launch site
Air Force Eastern Test Range (AFETR)
Object type
Payload
Rocket body
Debris
Shape & HBR
Box + 2 Pan, 17.7 m
Radar Cross Section
33.884 m², Large (>1 m²)

Expand to show TLE details & history
Last TLE update: 1 day ago

TLE from 1 day ago
0 STARLINK-32330
1 61850U 24202F   26266.16871477  .00001593  00000-0  67388-4 0  9997
2 61850  42.9997 202.3769 0001162 275.2723  84.7996 15.27581856105545
Epoch: 2026-09-23T04:02Z
TLE epoch observation values (Epoch: 2026-09-23T04:02:56.956Z)
Latitude
-0°
Longitude
139.61587°
Altitude
482.747 km
Speed
7.626 km/s
True Right ascension
13h 29m 30s
True Declination
0° 00' 00"
Sunlit
Object was in daylight at epoch
Visualization orbit readout
Latitude
Unknown
Longitude
Unknown
Altitude
Unknown
Speed
Unknown
Apparent Right ascension
Unknown
Apparent Declination
Unknown
Sunlit
N/A
Visualization observer readout
Local Sidereal Time
21:44:36
Azimuth
Unknown
Elevation
Unknown
Doppler factor
Unknown
Orbital elements
Apogee altitude
485.786 km
Perigee altitude
484.191 km
Semi-major axis
6,863.126 km
Eccentricity
0.00012
Inclination
42.9997°
RAAN
202.3769°
Arg. of periapsis
275.2723°
True anomaly
84.81286°
Mean anomaly
84.7996°
Eccentric anomaly
84.80623°
Mean motion
3.81733 °/min
Orbital period
94.31 mins
BSTAR
0.000067388
Loading maneuver chart data...
Computing Atmospheric mass density...
Loading historical data...
Loading historical data...
Loading historical data...
Loading historical data...
Loading historical data...
Loading historical data...
Loading historical data...

Documentation

Showing up to 5 results
|